Regional Weather Roundup
Issued by NWS

Home | Current Version | Previous Version | Graphics & Text | Print | Product List | Glossary On
Versions: 1 2 3 4 5 6 7 8 9 10 11 12 13 14 15 16 17 18 19 20 21 22 23 24 25 26 27
000
ASUS45 KBOU 121510
RWRCO

WEATHER ROUNDUP FOR COLORADO
NATIONAL WEATHER SERVICE DENVER/BOULDER CO
800 AM MST TUE DEC 12 2017

NOTE: "FAIR" INDICATES FEW OR NO CLOUDS BELOW 12000 FEET WITH NO
SIGNIFICANT WEATHER AND/OR OBSTRUCTIONS TO VISIBILITY.

COZ001>005-013-030-031-121600-
...NORTHWEST COLORADO...

CITY           SKY/WX    TMP DP  RH WIND       PRES   REMARKS
CRAIG          FAIR       9   4  80 CALM      30.54F
HAYDEN         FAIR      21  12  68 E14       30.55S WCI   8
MEEKER         FAIR      15   9  76 CALM      30.53S
RABBIT EARS PA FAIR      28   5  37 W12G17    30.57S WCI  18
STEAMBOAT SPGS FAIR      15  11  85 CALM      30.56S
WALDEN         FAIR      10   3  72 CALM      30.54F
$$

COZ006>008-011-121600-
...WEST CENTRAL VALLEYS...

CITY           SKY/WX    TMP DP  RH WIND       PRES   REMARKS
GRAND JUNCTION FAIR      22   4  46 E5        30.53S WCI  16
MONTROSE       FAIR      22   9  57 S9        30.57S WCI  12
EAGLE          FAIR       8   4  83 SE6       30.67S WCI  -2
RIFLE          FAIR      18   7  62 SE5       30.57F WCI  11
DELTA          FAIR      19   1  45 CALM      30.57S
NUCLA          FAIR      21   0  39 E7        30.56S WCI  13
$$

COZ017>023-064>068-121600-
...SOUTHWEST COLORADO...

CITY           SKY/WX    TMP DP  RH WIND       PRES   REMARKS
DURANGO        FAIR      17   0  47 NE3       30.51S
CORTEZ         FAIR      11   1  64 NE3       30.52S
PAGOSA SPRINGS FAIR      24  -2  31 CALM      30.52F
TELLURIDE      FAIR      31   0  26 SE7       30.57S WCI  25
WOLF CREEK PAS FAIR      32   3  29 NW7       30.67S WCI  26
$$

COZ009-010-012-014-032>034-037-058>063-121600-
...CENTRAL COLORADO...

CITY           SKY/WX    TMP DP  RH WIND       PRES   REMARKS
ASPEN          FAIR      17   9  70 S6        30.56S WCI   9
BUENA VISTA    FAIR      28  11  48 NW6       30.50S WCI  21
COPPER MTN     NOT AVBL
BERTHOUD PASS  FAIR      19   9  63 NW17G25   30.59R WCI   4
COTTONWOOD PAS FAIR      41   5  22 NW8G16    30.54R
GUNNISON       FAIR       4  -1  80 CALM      30.64S
KREMMLING      CLOUDY     5   0  78 CALM      30.66R
LEADVILLE      FAIR      20   5  52 NE10      30.56S WCI   9
MONARCH PASS   FAIR      30   1  29 W15       30.72S WCI  19
SALIDA         FAIR      30  10  42 W3        30.58S
SUNLIGHT       FAIR      30  10  43 CALM      30.64S
WILKERSON PASS FAIR      32   3  29 NW7       30.58R WCI  26
$$

COZ069>075-121600-
...SAN LUIS VALLEY/SANGRE DE CRISTO MOUNTAINS...

CITY           SKY/WX    TMP DP  RH WIND       PRES   REMARKS
ALAMOSA        FAIR      11   2  67 CALM      30.54S
DEL NORTE      FAIR      28   1  32 W13       30.53S WCI  17
LA VETA PASS   FAIR      28   1  31 SW24G31     N/A  WCI  14
SAGUACHE       FAIR      23   3  42 E3        30.54S
$$

COZ035-036-038>040-121600-
...NORTHERN COLORADO FRONT RANGE...

CITY           SKY/WX    TMP DP  RH WIND       PRES   REMARKS
DENVER INTL AP FAIR      42   7  23 S15       30.33F
DMNS CITY PARK NOT AVBL
AURORA         PTCLDY    37   9  30 S10       30.34F
FRONT RANGE AP CLEAR     32  10  40 S8        30.34F WCI  25
ERIE MUNI ARPT FAIR      24  15  69 S3        30.39F
BOULDER MUN AP FAIR      34  14  44 CALM      30.32F
CENTENNIAL     FAIR      38  12  34 S6        30.35F
BROOMFIELD     CLEAR     32  19  59 CALM      30.33F
FORT COLLINS   FAIR      29  18  63 S6        30.32F WCI  23
LONGMONT       FAIR      26  16  64 CALM      30.34F
$$

COZ041-046-047-076>085-087-088-121600-
...PIKES PEAK/PALMER DIVIDE AND SOUTHERN FOOTHILLS...

CITY           SKY/WX    TMP DP  RH WIND       PRES   REMARKS
COLO. SPRINGS  FAIR      31   7  36 N7        30.40S WCI  24
A. F. ACADEMY  FAIR      23   7  49 N9        30.39F WCI  13
SCHRIEVER AFB  FAIR      37   3  24 CALM      30.40S
CHEYENNE MTN   FAIR      47   3  16 S5        30.35S
ELLICOTT         N/A    N/A N/A N/A CALM      30.38S
FALCON         FAIR      32   8  36 W7        30.41S WCI  26
FORT CARSON    FAIR      30   7  38 NW9       30.38S WCI  21
LIMON          FAIR      28   9  44 N3        30.35F
MONUMENT HILL  FAIR      32   9  37 SW6       30.40F WCI  26
CANON CITY     FAIR      39  10  30 W7        30.39S
WALSENBURG     FAIR      37   9  30 SW5       30.41S
TRINIDAD       FAIR      33   9  36 W12       30.41S WCI  24
$$

COZ042>045-048>051-090-091-121600-
...NORTHEAST COLORADO...

CITY           SKY/WX    TMP DP  RH WIND       PRES   REMARKS
GREELEY ARPT   FAIR      20  11  68 CALM      30.35S
AKRON          FAIR      29   9  43 W16       30.31F WCI  17
BURLINGTON     FAIR      32  13  45 W9        30.32F WCI  24
WRAY           FAIR      27  14  59 W9        30.31F WCI  17
YUMA           FAIR      27  12  54 W9        30.31S WCI  17
STERLING       FAIR      21  12  68 S8        30.31F WCI  12
HOLYOKE        FAIR      34  18  51 W12       30.29F WCI  25
FORT MORGAN    FAIR      26  12  56 W9        30.33F WCI  17
$$

COZ086-089-092>099-121600-
...SOUTHEAST COLORADO...

CITY           SKY/WX    TMP DP  RH WIND       PRES   REMARKS
PUEBLO         FAIR      22   7  52 W5        30.40S WCI  16
LA JUNTA       FAIR      28   7  41 W12       30.39S WCI  18
LAMAR          FAIR      26   9  48 W8        30.37F WCI  18
SPRINGFIELD      N/A     34  11  38 W6        30.38S WCI  29
$$




USA.gov is the U.S. government's official web portal to all federal, state and local government web resources and services.